Location: Newark
(51.3318°N, 0.0053°E)
Time: 17:25:47
(UTC+00:00)

LO-87 - Pass Details

Date: 06 July 2022
Orbit: 450 x 466 km, 97.4° (Epoch: 18 August)

Event Time Altitude Azimuth Distance (km) Brightness Sun altitude
Exits shadow 22:19:15 11° 107° (ESE) 1,585 ? -12.5°
Maximum altitude 22:21:35 18° 63° (ENE) 1,200 ? -12.6°
Drops below altitude 10° 22:24:04 10° 18° (NNE) 1,636 ? -12.8°
Sets 22:26:34 0° 359° (N) 2,523 ? -13.0°
